Printer-friendly version

IAU Minor Planet Center

Minor Planet Center

MPEC 2004-E09 : S/2003 J 11

The following Minor Planet Electronic Circular may be linked-to from your own Web pages, but must not otherwise be redistributed electronically.


Read MPEC 2004-E08 Read MPEC 2004-E10


M.P.E.C. 2004-E09                                Issued 2004 Mar. 2, 00:20 UT

     The Minor Planet Electronic Circulars contain information on unusual
         minor planets and routine data on comets.  They are published
   on behalf of Commission 20 of the International Astronomical Union by the
          Minor Planet Center, Smithsonian Astrophysical Observatory,
                          Cambridge, MA 02138, U.S.A.

         Supported in part by the Steven and Michele Kirsch Foundation
             Prepared using the Tamkin Foundation Computer Network

                              MPC@CFA.HARVARD.EDU
          URL http://cfa-www.harvard.edu/iau/mpc.html  ISSN 1523-6714

                                  S/2003 J 11

                           Revision to MPEC 2003-E29

Additional Observations:
    SK03J110  C2003 12 24.53773 11 25 21.76 +05 30 26.0          23.5 R EE009568
    SK03J110  C2003 12 24.56891 11 25 22.10 +05 30 24.5          23.4 R EE009568
    SK03J110  C2003 12 24.60456 11 25 22.51 +05 30 22.7          23.5 R EE009568
    SK03J110  C2003 12 25.53734 11 25 33.23 +05 29 35.5          23.9 R EE009568
    SK03J110  C2003 12 25.56854 11 25 33.58 +05 29 34.2          23.7 R EE009568
    SK03J110  C2003 12 25.59973 11 25 33.92 +05 29 32.7          23.8 R EE009568

Observer details:
568 Mauna Kea.  Observers B. Gladman, J. Kavelaars, L. Allen.  Measurers
    L. Allen, B. Gladman, J. Kavelaars.  3.5-m Canada-France-Hawaii
    Telescope + CCD.

Orbital elements:
S/2003 J 11
Epoch 2004 July 14.0 TT = JDT 2453200.5                 MPC
M 175.05787              (2000.0)            P               Q
n   0.50152819     Peri.    7.87453     +0.80364101     +0.56575168
a   0.1544930      Node    44.06488     +0.53051902     -0.82163241
e   0.2041701      Incl.  164.60535     +0.26964920     -0.06960760
P   1.97           H   16.4           P/d   717.81
Residuals in seconds of arc
030206 568  0.3-  0.4+    030227 568  0.6+  0.6+    031224 568  0.1-  0.0
030206 568  0.3-  0.3+    030227 568  0.8+  0.5+    031224 568  0.1+  0.1+
030209 568  0.4+  1.1-    030227 568  0.7+  0.7+    031225 568  0.3-  0.1-
030209 568  0.1-  0.0     030307 568  0.6-  0.1-    031225 568  0.0   0.1+
030225 568  0.5-  0.4-    030307 568  0.4-  0.7-    031225 568  0.2+  0.1+
030225 568  0.5-  0.2-    031224 568  0.1+  0.1-

Ephemeris:
    S/2003 J 11                                                  q = 0.1230
Date    TT    R. A. (2000) Decl.     Delta     r_J   dR.A. ("/m)  dDecl.m1"/')
2004 02 25    11 15.24   +06 49.1    4.399    0.168  7506+/8.40+  1471-/ 24.5-
2004 03 06    11 10.62   +07 17.3    4.396    0.170  7668+/8.59+  1626-/ 27.1-
2004 03 16    11 05.94   +07 44.8    4.424    0.172  7751+/8.69+  1765-/ 29.4-
2004 03 26    11 01.55   +08 09.3    4.482    0.174  7757+/8.71+  1888-/ 31.5-
2004 04 05    10 57.75   +08 29.3    4.568    0.176  7693+/8.64+  1994-/ 33.2-
2004 04 15    10 54.78   +08 43.5    4.679    0.178  7565+/8.50+  2083-/ 34.7-
2004 04 25    10 52.81   +08 51.1    4.811    0.179  7382+/8.30+  2157-/ 36.0-
2004 05 05    10 51.91   +08 52.0    4.960    0.181  7151+/8.04+  2216-/ 36.9-
2004 05 15    10 52.11   +08 46.2    5.120    0.182  6880+/7.73+  2258-/ 37.6-
2004 05 25    10 53.38   +08 34.0    5.287    0.183  6573+/7.39+  2286-/ 38.1-
2004 06 04    10 55.65   +08 15.8    5.457    0.184  6235+/7.00+  2297-/ 38.3-
2004 06 14    10 58.82   +07 52.1    5.626    0.185  5871+/6.59+  2292-/ 38.2-
2004 06 24    11 02.82   +07 23.5    5.790    0.185  5482+/6.14+  2270-/ 37.8-
2004 07 04    11 07.53   +06 50.6    5.946    0.186  5071+/5.67+  2232-/ 37.2-
2004 07 14    11 12.86   +06 13.9    6.091    0.186  4640+/5.19+  2178-/ 36.3-
2004 07 24    11 18.72   +05 33.9    6.223    0.186  4191+/4.68+  2108-/ 35.1-
2004 08 03    11 25.02   +04 51.1    6.339    0.186  3726+/4.15+  2023-/ 33.7-
2004 08 13    11 31.67   +04 06.1    6.437    0.186  3246+/3.62+  1924-/ 32.1-

Brian G. Marsden             (C) Copyright 2004 MPC           M.P.E.C. 2004-E09

Read MPEC 2004-E08 Read MPEC 2004-E10


Our Web policy. Index to the CBAT/MPC/ICQ pages.


Valid HTML 4.01!